Weather History for KLHX - May, 2014

Change the Weather History Date:

Wednesday, May 28, 2014

  Actual Average Record
Temperature  
Mean Temperature 75 °F 67 °F  
Max Temperature 93 °F 82 °F 100 °F (1974)
Min Temperature 56 °F 52 °F 35 °F (1947)
Degree Days  
Heating Degree Days 0 2  
Month to date heating degree days 124 127  
Since 1 July heating degree days 5186 5250  
Cooling Degree Days 10 4  
Month to date cooling degree days 75 51  
Year to date cooling degree days 89 60  
Growing Degree Days 23 (Base 50)    
Moisture  
Dew Point 40 °F    
Average Humidity 38    
Maximum Humidity 61    
Minimum Humidity 14    
Precipitation  
Precipitation 0.00 in 0.05 in 0.54 in (1972)
Month to date precipitation 0.40 1.42  
Year to date precipitation 2.30 4.14  
Sea Level Pressure  
Sea Level Pressure 29.92 in    
Wind  
Wind Speed 9 mph (SW)    
Max Wind Speed 20 mph    
Max Gust Speed 25 mph    
Visibility 10 miles    
Events      
T = Trace of Precipitation, MM = Missing Value Source: NWS Daily Summary

Daily Weather History Graph

Daily Weather History Graph

Search for Another Location

Airport or City:

Trip Planner

Search our weather history database for the weather conditions in past years. The results will help you decide how hot, cold, wet, or windy it might be!

Date:

Astronomy

May. 28, 2014 Rise Set
Actual Time 5:34 AM MDT 8:08 PM MDT
Civil Twilight 5:04 AM MDT 8:39 PM MDT
Nautical Twilight 4:26 AM MDT 9:17 PM MDT
Astronomical Twilight 3:43 AM MDT 9:59 PM MDT
Moon 5:41 AM MDT (5/28) 8:09 PM MDT (5/28)
Length of Visible Light 15h 34m
Length of Day
14h 33m
Waning Crescent, 0% of the Moon is Illuminated
May 28
Waning Crescent
May 28
New
Jun 5
First Quarter
Jun 12
Full
Jun 19
Last Quarter

Hourly Weather History & Observations

Time (MDT) Temp. Dew Point Humidity Pressure Visibility Wind Dir Wind Speed Gust Speed Precip Events Conditions
12:53 AM 62.1 °F 41.0 °F 46% 29.94 in 10.0 mi Calm Calm - N/A   Clear
1:53 AM 64.0 °F 43.0 °F 46% 29.93 in 10.0 mi Calm Calm - N/A   Clear
2:53 AM 62.1 °F 43.0 °F 50% 29.93 in 10.0 mi Calm Calm - N/A   Clear
3:53 AM 57.0 °F 42.1 °F 57% 29.95 in 10.0 mi WNW 5.8 mph - N/A   Clear
4:53 AM 57.0 °F 42.1 °F 57% 29.95 in 10.0 mi Calm Calm - N/A   Clear
5:53 AM 55.9 °F 42.1 °F 60% 29.97 in 10.0 mi SW 6.9 mph - N/A   Clear
6:53 AM 61.0 °F 42.1 °F 50% 29.97 in 10.0 mi West 10.4 mph - N/A   Clear
7:53 AM 64.0 °F 42.1 °F 45% 29.98 in 9.0 mi WSW 5.8 mph - N/A   Clear
8:53 AM 70.0 °F 44.1 °F 39% 29.98 in 10.0 mi WSW 5.8 mph - N/A   Clear
9:53 AM 75.9 °F 44.1 °F 32% 29.97 in 10.0 mi SW 6.9 mph - N/A   Clear
10:53 AM 82.0 °F 42.1 °F 24% 29.95 in 10.0 mi SSW 8.1 mph - N/A   Clear
12:53 PM 89.1 °F 35.1 °F 15% 29.91 in 10.0 mi SE 10.4 mph 16.1 mph N/A   Clear
1:53 PM 90.0 °F 35.1 °F 14% 29.89 in 10.0 mi ENE 9.2 mph - N/A   Clear
2:53 PM 91.0 °F 35.1 °F 14% 29.87 in 10.0 mi ESE 11.5 mph 20.7 mph N/A   Clear
5:53 PM 89.1 °F 37.0 °F 16% 29.85 in 10.0 mi North - - N/A   Clear
6:53 PM 87.1 °F 37.0 °F 17% 29.85 in 10.0 mi North - - N/A   Clear
7:53 PM 82.0 °F 39.0 °F 22% 29.88 in 10.0 mi North - - N/A   Clear
8:53 PM 79.0 °F 39.0 °F 24% 29.87 in 10.0 mi North - - N/A   Clear
9:53 PM 77.0 °F 39.0 °F 25% 29.88 in 10.0 mi North - - N/A   Clear
10:53 PM 73.9 °F 39.9 °F 29% 29.87 in 10.0 mi North - - N/A   Clear